TimeCEST,TemperatureF,Dew PointF,Humidity,Sea Level PressureIn,VisibilityMPH,Wind Direction,Wind SpeedMPH,Gust SpeedMPH,PrecipitationIn,Events,Conditions,WindDirDegrees,DateUTC
12:00 AM,75.2,64.4,69,29.92,6.2,North,4.6,-,N/A,,Partly Cloudy,350,2013-08-09 22:00:00
12:30 AM,75.2,64.4,69,29.92,6.2,NNW,5.8,-,N/A,,Partly Cloudy,340,2013-08-09 22:30:00
1:00 AM,75.2,64.4,69,29.92,6.2,North,2.3,-,N/A,,Partly Cloudy,350,2013-08-09 23:00:00
1:04 AM,75.2,64.4,69,29.92,6.2,North,3.5,-,N/A,,Partly Cloudy,350,2013-08-09 23:04:00
1:30 AM,75.2,64.4,69,29.89,6.2,North,4.6,-,N/A,,Partly Cloudy,10,2013-08-09 23:30:00
2:00 AM,75,65,63,29.91,31,NNE,4.6,,,,Scattered Clouds,20,2013-08-10 00:00:00
2:00 AM,75.2,64.4,69,29.89,6.2,NNE,5.8,-,N/A,,Partly Cloudy,20,2013-08-10 00:00:00
2:30 AM,73.4,66.2,78,29.92,6.2,NNE,4.6,-,N/A,,Partly Cloudy,30,2013-08-10 00:30:00
3:00 AM,73.4,64.4,73,29.92,-9999.0,Variable,3.5,-,N/A,,Clear,0,2013-08-10 01:00:00
3:30 AM,73.4,64.4,73,29.92,-9999.0,North,3.5,-,N/A,,Clear,10,2013-08-10 01:30:00
4:00 AM,75.2,66.2,73,29.92,-9999.0,North,6.9,-,N/A,,Clear,360,2013-08-10 02:00:00
4:30 AM,75.2,66.2,73,29.92,-9999.0,North,6.9,-,N/A,,Clear,360,2013-08-10 02:30:00
5:00 AM,73.4,62.6,69,29.89,-9999.0,NNW,8.1,-,N/A,,Clear,330,2013-08-10 03:00:00
5:30 AM,73.4,62.6,69,29.89,-9999.0,NNW,9.2,-,N/A,,Clear,330,2013-08-10 03:30:00
6:00 AM,73.4,60.8,65,29.89,-9999.0,NNW,10.4,-,N/A,,Clear,340,2013-08-10 04:00:00
6:30 AM,73.4,59.0,61,29.89,-9999.0,NNW,8.1,-,N/A,,Clear,330,2013-08-10 04:30:00
7:00 AM,73.4,59.0,61,29.92,-9999.0,NNW,8.1,-,N/A,,Clear,330,2013-08-10 05:00:00
7:42 AM,73.4,57.2,57,29.92,-9999.0,North,4.6,-,N/A,,Clear,350,2013-08-10 05:42:00
8:00 AM,75,58,44,29.93,31,NW,5.8,,,,,320,2013-08-10 06:00:00
8:00 AM,75.2,57.2,53,29.92,-9999.0,NW,5.8,-,N/A,,Clear,320,2013-08-10 06:00:00
8:30 AM,77.0,57.2,50,29.92,-9999.0,NW,5.8,-,N/A,,Clear,320,2013-08-10 06:30:00
9:00 AM,78.8,57.2,47,29.92,-9999.0,NNW,6.9,-,N/A,,Clear,330,2013-08-10 07:00:00
9:30 AM,80.6,55.4,42,29.92,-9999.0,NNW,8.1,-,N/A,,Clear,330,2013-08-10 07:30:00
10:00 AM,82.4,55.4,39,29.92,-9999.0,NW,6.9,-,N/A,,Clear,320,2013-08-10 08:00:00
11:00 AM,80.6,66.2,61,29.95,-9999.0,SSW,6.9,-,N/A,,Clear,200,2013-08-10 09:00:00
11:30 AM,80.6,66.2,61,29.95,-9999.0,South,5.8,-,N/A,,Clear,180,2013-08-10 09:30:00
12:00 PM,80.6,68.0,65,29.95,6.2,SSE,8.1,-,N/A,,Partly Cloudy,160,2013-08-10 10:00:00
12:30 PM,82.4,68.0,62,29.95,6.2,SE,9.2,-,N/A,,Partly Cloudy,130,2013-08-10 10:30:00
1:00 PM,84.2,66.2,55,29.95,6.2,South,11.5,-,N/A,,Partly Cloudy,170,2013-08-10 11:00:00
1:30 PM,82.4,66.2,58,29.92,6.2,South,17.3,-,N/A,,Partly Cloudy,190,2013-08-10 11:30:00
2:00 PM,82,64,44,29.95,31,South,16.1,,,,Scattered Clouds,180,2013-08-10 12:00:00
2:30 PM,82.4,64.4,54,29.95,6.2,SSE,11.5,-,N/A,,Partly Cloudy,160,2013-08-10 12:30:00
3:00 PM,82.4,64.4,54,29.95,6.2,SE,10.4,-,N/A,,Partly Cloudy,140,2013-08-10 13:00:00
3:30 PM,82.4,64.4,54,29.95,6.2,South,9.2,-,N/A,,Partly Cloudy,170,2013-08-10 13:30:00
4:00 PM,82.4,62.6,51,29.95,6.2,South,9.2,-,N/A,,Partly Cloudy,180,2013-08-10 14:00:00
4:30 PM,82.4,62.6,51,29.95,6.2,SSE,8.1,-,N/A,,Partly Cloudy,150,2013-08-10 14:30:00
5:00 PM,82.4,60.8,48,29.95,6.2,SSE,5.8,-,N/A,,Partly Cloudy,150,2013-08-10 15:00:00
5:30 PM,82.4,62.6,51,29.95,6.2,SSE,6.9,-,N/A,,Partly Cloudy,150,2013-08-10 15:30:00
6:00 PM,82.4,62.6,51,29.95,6.2,ESE,4.6,-,N/A,,Partly Cloudy,120,2013-08-10 16:00:00
6:30 PM,82.4,62.6,51,29.95,6.2,East,5.8,-,N/A,,Partly Cloudy,100,2013-08-10 16:30:00
7:00 PM,82.4,60.8,48,29.95,6.2,East,3.5,-,N/A,,Partly Cloudy,90,2013-08-10 17:00:00
7:30 PM,82.4,62.6,51,29.95,6.2,Variable,3.5,-,N/A,,Partly Cloudy,0,2013-08-10 17:30:00
8:00 PM,81,62,43,29.96,31,East,3.5,,,,Scattered Clouds,80,2013-08-10 18:00:00
8:00 PM,80.6,60.8,51,29.95,6.2,Variable,2.3,-,N/A,,Partly Cloudy,0,2013-08-10 18:00:00
8:30 PM,78.8,62.6,57,29.95,6.2,ESE,4.6,-,N/A,,Partly Cloudy,110,2013-08-10 18:30:00
9:00 PM,78.8,64.4,61,29.95,-9999.0,East,4.6,-,N/A,,Clear,100,2013-08-10 19:00:00
9:30 PM,78.8,64.4,61,29.95,-9999.0,East,4.6,-,N/A,,Clear,80,2013-08-10 19:30:00
10:00 PM,78.8,62.6,57,29.95,-9999.0,NE,4.6,-,N/A,,Clear,50,2013-08-10 20:00:00
10:30 PM,77.0,62.6,61,29.95,-9999.0,NE,4.6,-,N/A,,Clear,40,2013-08-10 20:30:00
11:00 PM,77.0,59.0,54,29.95,-9999.0,North,6.9,-,N/A,,Clear,10,2013-08-10 21:00:00
11:30 PM,75.2,57.2,53,29.95,-9999.0,NNW,5.8,-,N/A,,Clear,330,2013-08-10 21:30:00